Orbital Elements at Epoch 2459200.5 (2020-Dec-17.0) TDB
Reference: JPL 40 (heliocentric ecliptic J2000)
Element | Value | Uncertainty (1-sigma) | Units |
e | .07861733022004601 | 1.6036e-08 | |
a | 2.436826731032544 | 6.9612e-09 | au |
q | 2.245249919229923 | 4.1178e-08 | au |
i | 6.397453824930921 | 1.1522e-06 | deg |
node | 163.1925754360894 | 9.4122e-06 | deg |
peri | 334.3712728135283 | 1.496e-05 | deg |
M | 358.0992135193566 | 1.4336e-05 | deg |
tp | 2459207.836116772301 (2020-Dec-24.33611677) | 5.5332e-05 | TDB |
period | 1389.425937590948 3.80 | 5.9537e-06 1.63e-08 | d yr |
n | .2590998125630106 | 1.1102e-09 | deg/d |
Q | 2.628403542835164 | 7.5084e-09 | au |
|
| | Orbit Determination Parameters
Additional Information
|